Location: Forest
(37.3641°N, 79.2902°W)
Time: 15:32:23
(UTC+00:00)

Tiangong - Visible Passes

Search period start: 20 January 2026 00:00
Search period end: 30 January 2026 00:00
Orbit: 378 x 393 km, 41.5° (Epoch: 20 January)

Date Brightness Start Highest point End Pass type
(mag) Time Alt. Az. Time Alt. Az. Time Alt. Az.
20 Jan -2.2 11:00:50 57° WNW 11:01:17 68° NNW 11:04:28 10° ENE visible
21 Jan 1.0 10:04:25 15° ENE 10:04:25 15° ENE 10:05:02 10° ENE visible
21 Jan -1.4 11:36:39 16° WNW 11:38:51 39° N 11:41:54 10° ENE visible
22 Jan -1.0 10:40:06 37° NE 10:40:06 37° NE 10:42:23 10° ENE visible
23 Jan -1.2 11:15:39 26° NW 11:16:49 36° N 11:19:48 10° ENE visible
24 Jan 0.4 10:18:54 20° NE 10:18:54 20° NE 10:20:07 10° ENE visible
24 Jan -1.5 11:51:11 10° WNW 11:54:16 47° N 11:57:22 10° E visible
25 Jan -1.4 10:54:17 38° N 10:54:31 39° N 10:57:32 10° ENE visible
26 Jan 1.3 09:57:24 12° ENE 09:57:24 12° ENE 09:57:40 10° ENE visible
26 Jan -2.0 11:29:36 18° WNW 11:31:48 66° NNE 11:34:57 10° E visible
27 Jan -0.9 10:32:41 38° NE 10:32:41 38° NE 10:35:03 10° E visible
28 Jan -2.2 11:07:57 37° WNW 11:09:02 79° SSW 11:12:12 10° ESE visible
29 Jan 0.4 10:11:00 22° E 10:11:00 22° E 10:12:17 10° E visible
29 Jan -0.6 11:43:12 10° W 11:45:48 25° SSW 11:48:27 10° SSE visible
